DELTA 1 DEB, 7038

Orbit data source: Space-Track

DELTA 1 DEB, 7038 is space debris in SSO originally from a launch on Tue, 06 Nov 1973 UTC launched from the Air Force Western Test Range (AFWTR). Debris objects in space refer to the collection of defunct objects orbiting the Earth. Examples of debris include non-operational satellites, rocket bodies, and fragments generated from explosions, collisions, or faulty payload assembly.

Loading next visibility...
Identifier
7038, 1973-086AE
Orbit
SSO
Country
Flag of USUS
Related business
Manufacturer
Unknown
Mission
Spacecraft
Bus & Motor
Unknown
Mass
Unknown
Launch date (UTC)
1973-11-06 (52 years ago)
Launch vehicle
Unknown
Launch site
Air Force Western Test Range (AFWTR)
Object type
Payload
Rocket body
Debris
Shape & HBR
Unknown shape, 0.2 m
Radar Cross Section
Medium (>0.1 m² and <1 m²)

Expand to show TLE details & history
Last TLE update: 9 hours ago

TLE from 9 hours ago
0 DELTA 1 DEB
1  7038U 73086AE  25299.97654124  .00000034  00000-0  67545-3 0  9994
2  7038 101.8942 132.0119 0127658 206.7071 324.2136 12.24388259317965
Epoch: 2025-10-26T23:26Z
TLE epoch observation values (Epoch: 2025-10-26T23:26:13.163Z)
Latitude
9.68083°
Longitude
-73.07894°
Altitude
1,493.383 km
Speed
7.155 km/s
True Right ascension
20h 56m 14s
True Declination
9° 37' 45"
Sunlit
Object was in daylight at epoch
Visualization orbit readout
Latitude
Unknown
Longitude
Unknown
Altitude
Unknown
Speed
Unknown
Apparent Right ascension
Unknown
Apparent Declination
Unknown
Sunlit
N/A
Visualization observer readout
Local Sidereal Time
03:21:17
Azimuth
Unknown
Elevation
Unknown
Doppler factor
Unknown
Orbital elements
Apogee altitude
1,672.552 km
Perigee altitude
1,469.596 km
Semi-major axis
7,949.211 km
Eccentricity
0.01277
Inclination
101.8942°
RAAN
132.0119°
Arg. of periapsis
206.7071°
True anomaly
323.347°
Mean anomaly
324.2136°
Eccentric anomaly
323.78142°
Mean motion
3.06237 °/min
Orbital period
117.56 mins
BSTAR
0.00067545
Loading maneuver chart data...
Computing Atmospheric mass density...
Loading historical data...
Loading historical data...
Loading historical data...
Loading historical data...
Loading historical data...
Loading historical data...
Loading historical data...

Documentation

Showing up to 5 results
|